Flag for U.S.A. Weather past 2 weeks in Metairie, Louisiana, U.S.A.

Now
70 °F

Fog.


Feels Like: 65 °F
Forecast: 56 / 67 °F
Wind: 10 mph from South

Location: New Orleans International Airport

Current Time: Dec 27, 2014 at 7:42:42 PM

Latest Report: Dec 27, 2014 at 6:53 PM


Visibility: 4 mi

Pressure: 30.07 "Hg

Humidity: 93%

Dew point: 68 °F

Location of MetairieLocation

Historic Weather in Metairie — Graph

°F

Metairie temperature yesterday

Maximum temperature yesterday: 67 °F (at 11:53 AM)
Minimum temperature yesterday: 42 °F (at 2:53 AM)
Average temperature yesterday: 59 °F

Past Weeks' High & Low Weather Summary

 TemperatureHumidityPressure
High79 °F (Dec 23, 1:53 PM)97% (Dec 23, 3:53 AM)30.34 "Hg (Dec 23, 3:53 AM)
Low39 °F (Dec 25, 5:53 AM)32% (Dec 16, 2:53 PM)29.53 "Hg (Dec 23, 3:04 PM)
Average58 °F76%30.08 "Hg
* Reported Dec 12 5:53 PM — Dec 27 5:53 PM, Metairie, Weather by CustomWeather, © 2014

Note: Actual official high and low records may vary slightly from our data, if they occured in-between our weather recording intervals... More about our weather records

Advertising

Metairie weather history for previous 24 hours

 ConditionsComfort  
Time TempWeatherWind HumidityBarometerVisibility
5:53 PM
Dec 27
70 °FFog.8 mph93%30.08 "Hg4 mi
4:53 PM70 °FFog.8 mph93%30.07 "Hg5 mi
3:53 PM70 °FFog.12 mph90%30.06 "Hg5 mi
2:53 PM71 °FFog.12 mph87%30.05 "Hg5 mi
1:53 PM70 °FFog.14 mph90%30.06 "Hg5 mi
12:53 PM69 °FLight rain. Fog.12 mph90%30.08 "Hg3 mi
11:53 AM69 °FFog.14 mph90%30.12 "Hg6 mi
10:53 AM68 °FLight rain. Fog.15 mph90%30.14 "Hg4 mi
9:53 AM68 °FLight rain. Fog.8 mph90%30.15 "Hg4 mi
8:58 AM66 °FLight rain. Fog.6 mph93%30.14 "Hg2 mi
8:04 AM64 °FFog.7 mph94%30.13 "Hg3 mi
7:53 AM64 °FFog.7 mph94%30.14 "Hg2 mi
6:53 AM64 °FFog.7 mph90%30.14 "Hg5 mi
6:04 AM65 °FLight rain. Fog.6 mph91%30.13 "Hg5 mi
5:53 AM64 °FRain. Fog.6 mph94%30.13 "Hg2 mi
4:53 AM63 °FLight rain. Overcast.6 mph93%30.12 "Hg7 mi
3:53 AM66 °FLight rain. Overcast.5 mph87%30.12 "Hg9 mi
2:53 AM66 °FMostly cloudy.14 mph84%30.14 "Hg10 mi
1:53 AM66 °FOvercast.13 mph78%30.10 "Hg10 mi
12:53 AM66 °FOvercast.12 mph75%30.11 "Hg10 mi
11:53 PM
Dec 26
66 °FOvercast.12 mph73%30.12 "Hg10 mi
10:53 PM65 °FMostly cloudy.12 mph76%30.14 "Hg10 mi
9:53 PM64 °FPartly cloudy.10 mph75%30.14 "Hg10 mi
8:53 PM63 °FMostly cloudy.10 mph78%30.14 "Hg10 mi
7:53 PM62 °FOvercast.10 mph80%30.15 "Hg10 mi
Weather by CustomWeather, © 2014

See weather overviewHow to use our weather pages